Meteo Giornale » Osservazioni meteo Austria » Vienna-Schwechat

ore: 17:50 - Osservazioni Meteo Vienna-Schwechat
Lat. 48° 7' N Lon. 16° 34' E Alt. 183 metri s.l.m.

poco_nuvoloso Europe/Vienna

25 °C

Poco Nuvoloso

Temp. 24 Ore

16 °C

25 °C

Ovest

14.8 Km/h

Dew point 11 °C

Umidità 41 %

Visibilità  10 Km

Il sole sorge alle ore 05:29

Il sole tramonta alle ore 20:30

Data e Ora Cielo e Fenomeni T °C DP °C Um. % Pres. hPa Vis. km Vento km/h
Oggi h: 17:50 poco_nuvoloso Poco Nuvoloso 25 11 41 1013 10 O 14.8
Oggi h: 17:20 poco_nuvoloso Poco Nuvoloso 25 10 38 1014 10 O 18.5
Oggi h: 16:50 poco_nuvoloso Poco Nuvoloso 25 11 41 1014 10 O 14.8
Oggi h: 16:20 poco_nuvoloso Poco Nuvoloso 25 11 41 1014 10 O 13
Oggi h: 15:50 poco_nuvoloso Poco Nuvoloso 25 11 41 1014 10 O 18.5
Oggi h: 15:20 poco_nuvoloso Poco Nuvoloso 24 11 43 1014 10 O/SO 16.7
Oggi h: 14:50 poco_nuvoloso Poco Nuvoloso 24 12 47 1014 10 O/NO 20.3
Oggi h: 14:20 poco_nuvoloso Poco Nuvoloso 24 11 43 1014 10 O 20.3
Oggi h: 13:50 nuvoloso Nuvoloso 23 12 49 1014 10 O 22.2
Oggi h: 13:20 nuvoloso Nuvoloso 23 12 49 1014 10 O 20.3
Oggi h: 12:50 poco_nuvoloso Poco Nuvoloso 23 13 53 1014 10 O/NO 22.2
Oggi h: 12:20 poco_nuvoloso Poco Nuvoloso 22 12 53 1014 10 O/NO 25.9
Oggi h: 11:50 poco_nuvoloso Poco Nuvoloso 22 13 56 1014 10 O/NO 25.9
Oggi h: 11:20 poco_nuvoloso Poco Nuvoloso 21 13 60 1014 10 O/NO 29.6
Oggi h: 10:50 poco_nuvoloso Poco Nuvoloso 21 12 56 1014 10 NO 27.8
Oggi h: 10:20 poco_nuvoloso Poco Nuvoloso 21 12 56 1014 10 O/NO 27.8
Oggi h: 09:50 poco_nuvoloso Poco Nuvoloso 20 12 59 1014 10 O 31.5
Oggi h: 09:20 sereno Sereno 20 12 59 1014 10 O 29.6
Oggi h: 08:50 sereno Sereno 19 12 63 1014 10 O 29.6
Oggi h: 08:20 sereno Sereno 19 12 63 1014 10 O 25.9
Oggi h: 07:50 sereno Sereno 18 12 67 1014 10 O/NO 22.2
Oggi h: 07:20 sereno Sereno 17 12 72 1013 10 O 22.2
Oggi h: 06:50 sereno Sereno 17 12 72 1013 10 O/NO 24
Oggi h: 05:50 sereno Sereno 17 12 72 1013 10 O 25.9
Oggi h: 05:20 sereno Sereno 16 12 77 1013 10 O 27.8
Oggi h: 04:50 sereno Sereno 17 12 72 1012 10 O 25.9
Oggi h: 04:20 sereno Sereno 17 13 77 1012 10 O 24
Oggi h: 03:50 sereno Sereno 17 13 77 1012 10 O 22.2
Oggi h: 03:20 sereno Sereno 17 13 77 1011 10 O/NO 20.3
Oggi h: 02:50 sereno Sereno 17 13 77 1011 10 O/NO 24
Oggi h: 02:20 nuvoloso_piovaschi Debole Rovescio di Pioggia 17 13 77 1011 10 O 27.8
Oggi h: 01:50 poco_nuvoloso Poco Nuvoloso 17 13 77 1011 10 O 25.9
Oggi h: 01:20 sereno Sereno 17 13 77 1011 10 O 24
Oggi h: 00:50 sereno Sereno 17 13 77 1011 10 O/NO 24
Oggi h: 00:20 sereno Sereno 17 13 77 1011 10 O 24
Ieri h: 23:50 sereno Sereno 17 13 77 1011 10 O 18.5
Ieri h: 23:20 sereno Sereno 17 13 77 1011 10 O 24
Ieri h: 22:50 sereno Sereno 17 13 77 1011 10 O 20.3
Ieri h: 22:20 sereno Sereno 17 13 77 1010 10 O 22.2
Ieri h: 21:50 poco_nuvoloso Poco Nuvoloso 17 14 82 1010 10 NO 14.8
Ieri h: 21:20 poco_nuvoloso Poco Nuvoloso 17 14 82 1010 10 O/NO 16.7
Ieri h: 20:20 poco_nuvoloso Poco Nuvoloso 17 14 82 1009 10 O/NO 24
Ieri h: 19:50 nuvoloso Nuvoloso 17 14 82 1009 10 O/NO 20.3
Ieri h: 19:20 poco_nuvoloso Poco Nuvoloso 17 14 82 1008 10 NO 14.8
Ieri h: 18:50 nuvoloso Nuvoloso 18 14 77 1008 10 O/NO 22.2